Location: Home
(42.5358°N, 72.7383°W)
Time: 07:34:48
(UTC-05:00)

Envisat - Pass Details

Date: 24 October 2021
Orbit: 764 x 766 km, 98.2° (Epoch: 07 December)

Event Time Altitude Azimuth Distance (km) Brightness Sun altitude
Rises 05:19:16 0° 21° (NNE) 3,241 6.6 -21.9°
Reaches altitude 10° 05:21:46 10° 30° (NNE) 2,310 5.9 -21.5°
Maximum altitude 05:26:27 36° 97° (E) 1,193 4.6 -20.6°
Drops below altitude 10° 05:31:05 10° 164° (SSE) 2,293 5.6 -19.8°
Sets 05:33:33 0° 172° (S) 3,214 6.3 -19.3°
